Showing default

LEMUR-2 KATIE, 67387

Orbit data source: Space-Track

LEMUR-2 KATIE, 67387 is a payload satellite owned by Spire/Lux (US) in SSO that was launched on Sun, 11 Jan 2026 UTC via an FALCON 9 launch vehicle from the Air Force Western Test Range (AFWTR). Payload-class satellites include a variety of spacecraft equipped with specific instruments for various scientific and technological missions. These include communications satellites like Starlink; space stations such as the ISS; scientific satellites like the Hubble; Earth observation satellites from companies like Planet Labs, Umbra, and HawkEye 360; GPS; miniature CubeSats for education and research; and military/defense satellites.

Loading next visibility...
Identifier
67387, 2026-004AA
Orbit
SSO
Country
Flag of USUS
Related business
Manufacturer
Spire/Glasgow
Mission
Operational spacecraft
Bus & Motor
CUBESAT 3U, Unknown motor
Mass
4.6 kg wet, 4.6 kg dry
Launch date (UTC)
2026-01-11 (3 months ago)
Launch vehicle
FALCON 9
Launch site
Air Force Western Test Range (AFWTR)
Object type
Payload
Rocket body
Debris
Shape & HBR
Unknown shape, 0.2 m
Radar Cross Section
RCS unknown

Expand to show TLE details & history
Last TLE update: 7 hours ago

TLE from 7 hours ago
0 LEMUR-2 KATIE
1 67387U 26004AA  26095.28126454  .00008308  00000-0  87683-3 0  9991
2 67387  97.8052  95.2325 0002768  11.9174 348.2109 14.89524089 12455
Epoch: 2026-04-05T06:45Z
TLE epoch observation values (Epoch: 2026-04-05T06:45:01.256Z)
Latitude
0.00005°
Longitude
160.38832°
Altitude
600.568 km
Speed
7.56 km/s
True Right ascension
06h 20m 55s
True Declination
0° 00' 00"
Sunlit
Object was in daylight at epoch
Visualization orbit readout
Latitude
Unknown
Longitude
Unknown
Altitude
Unknown
Speed
Unknown
Apparent Right ascension
Unknown
Apparent Declination
Unknown
Sunlit
N/A
Visualization observer readout
Local Sidereal Time
19:28:58
Azimuth
Unknown
Elevation
Unknown
Doppler factor
Unknown
Orbital elements
Apogee altitude
598.376 km
Perigee altitude
594.515 km
Semi-major axis
6,974.582 km
Eccentricity
0.00028
Inclination
97.8052°
RAAN
95.2325°
Arg. of periapsis
11.9174°
True anomaly
348.20442°
Mean anomaly
348.2109°
Eccentric anomaly
348.20766°
Mean motion
3.7262 °/min
Orbital period
96.61 mins
BSTAR
0.00087683
Loading maneuver chart data...
Computing Atmospheric mass density...
Loading historical data...
Loading historical data...
Loading historical data...
Loading historical data...
Loading historical data...
Loading historical data...
Loading historical data...

Documentation

Showing up to 5 results
|